Weather History for Chippewa, MI

Change the Weather History Date:

Friday, December 7, 2012

  Actual Average Record
Temperature  
Mean Temperature 32 °F -  
Max Temperature 35 °F 30 °F 42 °F (1988)
Min Temperature 30 °F 13 °F -6 °F (1991)
Degree Days  
Heating Degree Days 32    
Moisture  
Dew Point 29 °F    
Average Humidity 84    
Maximum Humidity 100    
Minimum Humidity 70    
Precipitation  
Precipitation 0.00 in - - ()
Sea Level Pressure  
Sea Level Pressure 29.92 in    
Wind  
Wind Speed 7 mph (WNW)    
Max Wind Speed 15 mph    
Max Gust Speed 20 mph    
Visibility 9 miles    
Events      
Averages and records for this station are not official NWS values.
T = Trace of Precipitation, MM = Missing Value Source: NWS Daily Summary

Daily Weather History Graph

Daily Weather History Graph

Search for Another Location

Airport:

Trip Planner

Search our weather history database for the weather conditions in past years. The results will help you decide how hot, cold, wet, or windy it might be!

Date:

Astronomy

Dec. 07, 2012 Rise Set
Actual Time 8:07 AM EST 4:51 PM EST
Civil Twilight 7:32 AM EST 5:26 PM EST
Nautical Twilight 6:54 AM EST 6:04 PM EST
Astronomical Twilight 6:18 AM EST 6:40 PM EST
Moon 1:06 AM EST (12/7) 1:05 PM EST (12/7)
Length of Visible Light 9h 53m
Length of Day
8h 44m
Last Quarter, 39% of the Moon is Illuminated
Dec 7
Last Quarter
Dec 13
New
Dec 20
First Quarter
Dec 28
Full
Jan 4
Last Quarter

Hourly Weather History & Observations

Time (EST) Temp. Windchill Dew Point Humidity Pressure Visibility Wind Dir Wind Speed Gust Speed Precip Events Conditions
12:15 AM 35.6 °F - 33.8 °F 93% 29.79 in 8.0 mi Calm Calm - N/A   Overcast
12:35 AM 35.6 °F 32.8 °F 35.6 °F 100% 29.80 in 7.0 mi SW 3.5 mph - N/A   Overcast
12:55 AM 35.6 °F 32.8 °F 33.8 °F 93% 29.79 in 6.0 mi SW 3.5 mph - N/A   Overcast
1:15 AM 35.6 °F 32.8 °F 33.8 °F 93% 29.79 in 5.0 mi SW 3.5 mph - N/A   Overcast
1:35 AM 35.6 °F 30.7 °F 33.8 °F 93% 29.79 in 5.0 mi WSW 5.8 mph - N/A   Overcast
1:55 AM 35.6 °F 29.9 °F 33.8 °F 93% 29.80 in 5.0 mi West 6.9 mph - N/A   Overcast
2:15 AM 35.6 °F 30.7 °F 33.8 °F 93% 29.80 in 5.0 mi West 5.8 mph - N/A   Overcast
2:35 AM 35.6 °F 29.2 °F 33.8 °F 93% 29.81 in 5.0 mi West 8.1 mph - N/A   Overcast
2:55 AM 35.6 °F 29.2 °F 33.8 °F 93% 29.81 in 5.0 mi West 8.1 mph - N/A   Overcast
3:15 AM 35.6 °F 29.9 °F 33.8 °F 93% 29.82 in 6.0 mi West 6.9 mph - N/A   Overcast
3:35 AM 35.6 °F 29.2 °F 35.6 °F 100% 29.82 in 6.0 mi WNW 8.1 mph - N/A   Overcast
3:55 AM 35.6 °F 27.5 °F 35.6 °F 100% 29.82 in 10.0 mi WNW 11.5 mph 17.3 mph N/A   Overcast
4:15 AM 35.6 °F 28.0 °F 35.6 °F 100% 29.83 in 10.0 mi WNW 10.4 mph 16.1 mph N/A   Overcast
4:35 AM 35.6 °F 26.2 °F 33.8 °F 93% 29.83 in 10.0 mi NW 15.0 mph - N/A   Overcast
4:55 AM 35.6 °F 26.2 °F 33.8 °F 93% 29.84 in 10.0 mi WNW 15.0 mph - N/A   Overcast
5:15 AM 35.6 °F 27.1 °F 33.8 °F 93% 29.85 in 10.0 mi WNW 12.7 mph - N/A   Overcast
5:35 AM 35.6 °F 28.0 °F 32.0 °F 87% 29.85 in 10.0 mi WNW 10.4 mph - N/A   Overcast
5:55 AM 35.6 °F 28.0 °F 30.2 °F 81% 29.86 in 10.0 mi West 10.4 mph 19.6 mph N/A   Overcast
6:15 AM 35.6 °F 29.2 °F 30.2 °F 81% 29.87 in 10.0 mi West 8.1 mph - N/A   Overcast
6:35 AM 35.6 °F 28.0 °F 30.2 °F 81% 29.88 in 10.0 mi West 10.4 mph - N/A   Overcast
6:55 AM 33.8 °F 26.4 °F 30.2 °F 87% 29.88 in 10.0 mi West 9.2 mph - N/A   Overcast
7:15 AM 33.8 °F 27.0 °F 30.2 °F 87% 29.89 in 10.0 mi West 8.1 mph - N/A   Overcast
7:35 AM 33.8 °F 27.7 °F 30.2 °F 87% 29.89 in 10.0 mi West 6.9 mph - N/A   Overcast
7:55 AM 33.8 °F 28.6 °F 30.2 °F 87% 29.89 in 10.0 mi WSW 5.8 mph - N/A   Overcast
8:15 AM 33.8 °F 28.6 °F 30.2 °F 87% 29.89 in 10.0 mi WSW 5.8 mph - N/A   Overcast
8:35 AM 33.8 °F 29.6 °F 30.2 °F 87% 29.91 in 10.0 mi WSW 4.6 mph - N/A   Overcast
8:55 AM 33.8 °F 29.6 °F 30.2 °F 87% 29.91 in 10.0 mi WSW 4.6 mph - N/A   Overcast
9:15 AM 33.8 °F 28.6 °F 30.2 °F 87% 29.92 in 10.0 mi WSW 5.8 mph - N/A   Overcast
9:35 AM 33.8 °F 29.6 °F 30.2 °F 87% 29.92 in 10.0 mi SW 4.6 mph - N/A   Overcast
9:55 AM 33.8 °F 27.7 °F 30.2 °F 87% 29.92 in 10.0 mi WSW 6.9 mph - N/A   Overcast
10:35 AM 33.8 °F 29.6 °F 30.2 °F 87% 29.93 in 10.0 mi WSW 4.6 mph - N/A   Overcast
10:55 AM 33.8 °F 27.0 °F 30.2 °F 87% 29.94 in 10.0 mi West 8.1 mph - N/A   Overcast
11:15 AM 33.8 °F 25.8 °F 30.2 °F 87% 29.95 in 10.0 mi West 10.4 mph - N/A   Overcast
11:35 AM 33.8 °F 25.8 °F 30.2 °F 87% 29.95 in 10.0 mi West 10.4 mph - N/A   Overcast
11:55 AM 33.8 °F 25.8 °F 28.4 °F 81% 29.94 in 10.0 mi West 10.4 mph - N/A   Overcast
12:15 PM 33.8 °F 26.4 °F 28.4 °F 81% 29.94 in 10.0 mi WNW 9.2 mph - N/A   Overcast
12:35 PM 33.8 °F 25.3 °F 28.4 °F 81% 29.94 in 10.0 mi WNW 11.5 mph - N/A   Overcast
12:55 PM 33.8 °F 25.3 °F 26.6 °F 75% 29.93 in 10.0 mi WNW 11.5 mph - N/A   Overcast
1:15 PM 35.6 °F 27.1 °F 26.6 °F 70% 29.93 in 10.0 mi WNW 12.7 mph - N/A   Overcast
1:35 PM 33.8 °F 25.3 °F 26.6 °F 75% 29.94 in 10.0 mi WNW 11.5 mph - N/A   Overcast
1:55 PM 33.8 °F 25.3 °F 26.6 °F 75% 29.94 in 10.0 mi West 11.5 mph - N/A   Overcast
2:15 PM 33.8 °F 26.4 °F 26.6 °F 75% 29.94 in 10.0 mi WNW 9.2 mph - N/A   Overcast
2:35 PM 33.8 °F 26.4 °F 26.6 °F 75% 29.94 in 10.0 mi WNW 9.2 mph - N/A   Overcast
2:55 PM 33.8 °F 25.8 °F 26.6 °F 75% 29.94 in 10.0 mi WNW 10.4 mph - N/A   Overcast
3:15 PM 33.8 °F 25.8 °F 26.6 °F 75% 29.94 in 10.0 mi West 10.4 mph - N/A   Overcast
3:35 PM 33.8 °F 25.3 °F 26.6 °F 75% 29.95 in 10.0 mi WNW 11.5 mph - N/A   Overcast
3:55 PM 33.8 °F 25.8 °F 26.6 °F 75% 29.96 in 10.0 mi WNW 10.4 mph - N/A   Overcast
4:15 PM 33.8 °F 25.8 °F 24.8 °F 70% 29.96 in 10.0 mi WNW 10.4 mph - N/A   Overcast
4:35 PM 33.8 °F 25.3 °F 24.8 °F 70% 29.97 in 10.0 mi WNW 11.5 mph - N/A   Overcast
4:55 PM 33.8 °F 26.4 °F 26.6 °F 75% 29.97 in 10.0 mi NW 9.2 mph - N/A   Overcast
5:15 PM 32.0 °F 23.6 °F 24.8 °F 75% 29.96 in 10.0 mi WNW 10.4 mph - N/A   Overcast
5:35 PM 32.0 °F 24.2 °F 24.8 °F 75% 29.97 in 10.0 mi NW 9.2 mph - N/A   Overcast
5:55 PM 32.0 °F 23.6 °F 26.6 °F 80% 29.97 in 10.0 mi WNW 10.4 mph - N/A   Overcast
6:15 PM 32.0 °F 25.6 °F 24.8 °F 75% 29.98 in 10.0 mi WNW 6.9 mph - N/A   Overcast
6:35 PM 32.0 °F 26.4 °F 26.6 °F 80% 29.98 in 10.0 mi WNW 5.8 mph - N/A   Overcast
6:55 PM 30.2 °F 22.6 °F 26.6 °F 86% 29.97 in 10.0 mi NW 8.1 mph - N/A   Overcast
7:15 PM 30.2 °F 23.4 °F 24.8 °F 80% 29.98 in 10.0 mi WNW 6.9 mph - N/A   Overcast
7:35 PM 30.2 °F 24.3 °F 24.8 °F 80% 29.98 in 10.0 mi WNW 5.8 mph - N/A   Overcast
7:55 PM 30.2 °F 25.4 °F 24.8 °F 80% 29.98 in 10.0 mi NW 4.6 mph - N/A   Overcast
8:15 PM 30.2 °F 24.3 °F 26.6 °F 86% 29.99 in 10.0 mi WNW 5.8 mph - N/A   Overcast
8:35 PM 30.2 °F - 26.6 °F 86% 29.98 in 10.0 mi Calm Calm - N/A   Overcast
8:55 PM 30.2 °F 25.4 °F 26.6 °F 86% 29.97 in 10.0 mi North 4.6 mph - N/A   Overcast
9:15 PM 30.2 °F - 26.6 °F 86% 29.98 in 10.0 mi Calm Calm - N/A   Overcast
9:35 PM 30.2 °F 26.7 °F 26.6 °F 86% 29.99 in 10.0 mi ENE 3.5 mph - N/A   Overcast
9:55 PM 30.2 °F 26.7 °F 26.6 °F 86% 29.99 in 10.0 mi East 3.5 mph - N/A   Overcast
10:15 PM 30.2 °F - 26.6 °F 86% 30.00 in 10.0 mi Calm Calm - N/A   Overcast
10:35 PM 30.2 °F 24.3 °F 24.8 °F 80% 29.99 in 10.0 mi NE 5.8 mph - N/A   Overcast
10:55 PM 30.2 °F 26.7 °F 24.8 °F 80% 29.99 in 10.0 mi NNE 3.5 mph - N/A   Overcast
11:15 PM 30.2 °F 25.4 °F 24.8 °F 80% 29.99 in 10.0 mi NE 4.6 mph - N/A   Overcast
11:35 PM 30.2 °F 25.4 °F 24.8 °F 80% 29.98 in 10.0 mi ENE 4.6 mph - N/A   Overcast
11:55 PM 30.2 °F 25.4 °F 24.8 °F 80% 29.99 in 10.0 mi NE 4.6 mph - N/A   Overcast